This is the latest recevied weather packets stored in our database for station/object KC5EZZ-2. If no packets are shown the sender has not sent any weather packets the latest 10 day(s).
| Time | Temp. | Humidity | Pressure | Rain* | Wind** | Luminosity | Snow |
|---|---|---|---|---|---|---|---|
| 1777844357 | 25.56° C | - | - | 0 mm | 5.81 m/s, 105° | - | - |
| 1777844057 | 25.56° C | - | - | 0 mm | 5.36 m/s, 148° | - | - |
| 1777843758 | 25.56° C | - | - | 0 mm | 4.92 m/s, 110° | - | - |
| 1777843455 | 25.56° C | - | - | 0 mm | 4.47 m/s, 142° | - | - |
| 1777843156 | 25.56° C | - | - | 0 mm | 6.71 m/s, 120° | - | - |
| 1777842856 | 26.67° C | - | - | 0 mm | 4.92 m/s, 117° | - | - |
| 1777842555 | 27.22° C | - | - | 0 mm | 4.02 m/s, 153° | - | - |
| 1777842254 | 27.78° C | - | - | 0 mm | 4.02 m/s, 167° | - | - |
| 1777841955 | 27.22° C | - | - | 0 mm | 4.92 m/s, 127° | - | - |
| 1777841652 | 27.22° C | - | - | 0 mm | 4.02 m/s, 183° | - | - |
| 1777841352 | 26.67° C | - | - | 0 mm | 5.36 m/s, 176° | - | - |
| 1777841053 | 26.67° C | - | - | 0 mm | 4.47 m/s, 195° | - | - |
| 1777840750 | 26.67° C | - | - | 0 mm | 4.02 m/s, 180° | - | - |
| 1777840451 | 26.67° C | - | - | 0 mm | 5.36 m/s, 156° | - | - |
| 1777840151 | 27.22° C | - | - | 0 mm | 3.58 m/s, 176° | - | - |
| 1777839849 | 26.67° C | - | - | 0 mm | 1.79 m/s, 124° | - | - |
| 1777839549 | 26.67° C | - | - | 0 mm | 4.47 m/s, 187° | - | - |
| 1777839249 | 26.11° C | - | - | 0 mm | 5.81 m/s, 105° | - | - |
| 1777838947 | 26.11° C | - | - | 0 mm | 3.58 m/s, 135° | - | - |
| 1777838647 | 26.11° C | - | - | 0 mm | 5.81 m/s, 118° | - | - |
| 1777838348 | 26.11° C | - | - | 0 mm | 3.58 m/s, 183° | - | - |
| 1777838045 | 26.11° C | - | - | 0 mm | 4.47 m/s, 177° | - | - |
| 1777837746 | 26.67° C | - | - | 0 mm | 4.47 m/s, 159° | - | - |
| 1777837446 | 26.11° C | - | - | 0 mm | 4.47 m/s, 136° | - | - |
| 1777837144 | 25.56° C | - | - | 0 mm | 3.58 m/s, 138° | - | - |
* Rain latest hour (hover to see other rain measurements)
** Current wind speed in m/s (hover to see current wind gust speed)